Total_Precipitation_Accumulation
2.00 2.08 1.99 1.97 1.87 1.84 1.82 1.67 1.58 1.54 1.45 1.31 1.09 1.05 1.08 1.01 1.08 1.27 1.33 1.37 1.41 1.68 2.08 2.31 2.22 1.97 1.91 1.90 1.91 1.85 1.68 1.52 1.37 1.22 1.07 0.95 0.89 0.85 0.77 0.74 0.72 0.66 0.63
2.20 2.27 2.25 2.22 2.17 2.13 2.20 2.02 1.80 1.89 1.75 1.67 1.48 1.40 1.34 1.35 1.36 1.48 1.69 1.68 1.48 1.49 1.80 2.19 2.35 2.33 2.33 2.25 2.12 1.95 1.80 1.68 1.61 1.54 1.39 1.22 1.10 1.00 0.92 0.89 0.83 0.76 0.72
2.31 2.39 2.57 2.52 2.46 2.40 2.42 2.37 2.22 2.24 2.02 1.90 1.78 1.66 1.61 1.70 1.72 1.67 1.83 2.00 1.79 1.68 1.66 1.81 2.05 2.24 2.38 2.43 2.37 2.24 2.05 1.90 1.80 1.78 1.74 1.59 1.42 1.32 1.24 1.13 1.03 1.00 0.95
2.48 2.71 2.83 2.81 2.79 2.68 2.74 2.82 2.75 2.56 2.41 2.23 2.06 1.82 1.73 1.85 1.88 1.88 1.91 2.06 2.21 2.07 1.93 1.80 1.85 2.00 2.24 2.43 2.50 2.52 2.42 2.23 2.06 1.94 1.89 1.85 1.77 1.61 1.45 1.30 1.22 1.20 1.15
2.93 3.06 3.18 3.21 3.18 3.21 3.19 3.03 3.18 3.00 2.90 2.72 2.33 2.10 1.86 1.81 1.89 1.84 1.92 1.91 2.05 2.10 2.11 2.01 1.88 1.90 2.11 2.42 2.54 2.67 2.69 2.61 2.45 2.25 2.07 1.94 1.92 1.85 1.71 1.55 1.42 1.32 1.26
3.56 3.67 3.63 3.64 3.64 3.69 3.54 3.52 3.54 3.29 3.07 3.01 2.56 2.32 2.13 1.95 1.94 1.92 1.90 1.94 1.89 1.80 1.89 2.00 2.07 1.88 2.00 2.17 2.33 2.53 2.74 2.90 2.84 2.63 2.49 2.34 2.21 2.06 1.82 1.65 1.51 1.42 1.34
4.51 4.57 4.44 4.32 4.16 4.04 3.86 3.75 3.58 3.38 3.14 3.06 2.90 2.52 2.06 1.77 1.74 1.66 1.70 1.83 1.83 1.77 1.80 1.88 1.95 1.88 1.78 1.81 1.88 2.12 2.45 2.82 3.05 2.99 2.84 2.65 2.39 2.20 2.02 1.85 1.70 1.60 1.48
5.39 5.46 5.38 5.16 4.92 4.60 4.15 3.80 3.60 3.43 3.14 3.14 3.09 2.97 2.39 1.97 1.64 1.34 1.42 1.49 1.55 1.66 1.63 1.63 1.73 1.83 1.77 1.76 1.61 1.71 1.93 2.25 2.69 2.99 2.99 2.81 2.61 2.42 2.31 2.18 2.02 1.88 1.71
5.54 5.69 5.64 5.39 5.02 4.46 3.96 3.78 3.69 3.56 3.36 3.27 3.11 3.15 2.71 2.28 1.92 1.50 1.28 1.20 1.27 1.32 1.33 1.39 1.46 1.59 1.58 1.63 1.58 1.61 1.67 1.79 2.19 2.57 2.62 2.46 2.36 2.26 2.22 2.19 2.14 2.05 1.96
5.34 5.22 5.05 4.64 4.21 3.89 3.62 3.52 3.53 3.35 3.31 3.20 3.12 2.81 2.57 2.31 2.09 1.74 1.40 1.21 1.20 1.21 1.22 1.21 1.27 1.47 1.55 1.56 1.55 1.53 1.52 1.59 1.82 2.09 2.25 2.24 2.17 2.17 2.18 2.18 2.17 2.16 2.18
4.53 4.18 3.82 3.54 3.44 3.26 3.04 2.93 2.90 2.85 2.70 2.63 2.64 2.59 2.52 2.28 1.98 1.77 1.55 1.37 1.34 1.24 1.22 1.28 1.33 1.41 1.52 1.56 1.56 1.58 1.55 1.48 1.54 1.62 1.75 1.84 1.92 2.01 2.11 2.18 2.25 2.28 2.27
3.76 3.32 3.09 2.84 2.69 2.52 2.30 2.17 2.16 2.22 2.30 2.33 2.36 2.34 2.30 2.27 2.13 2.03 1.87 1.66 1.52 1.46 1.37 1.32 1.39 1.46 1.61 1.71 1.72 1.90 1.66 1.50 1.47 1.45 1.44 1.50 1.59 1.70 1.84 2.01 2.18 2.27 2.36
3.40 2.95 2.51 2.29 2.05 1.85 1.73 1.66 1.64 1.67 1.79 1.91 2.02 2.06 2.05 2.02 1.99 2.01 2.07 1.90 1.68 1.54 1.42 1.39 1.44 1.53 1.57 1.68 1.85 2.02 1.75 1.65 1.52 1.40 1.31 1.29 1.33 1.42 1.52 1.62 1.80 1.96 2.11
2.81 2.47 2.02 1.66 1.44 1.29 1.22 1.24 1.29 1.34 1.39 1.47 1.60 1.73 1.76 1.72 1.79 1.87 1.95 2.02 1.97 1.73 1.47 1.43 1.55 1.60 1.62 1.61 1.81 1.90 1.62 1.66 1.49 1.39 1.34 1.29 1.25 1.25 1.32 1.41 1.57 1.71 1.78
1.94 1.72 1.48 1.26 1.13 1.08 1.05 1.05 1.04 1.05 1.11 1.20 1.28 1.40 1.53 1.56 1.59 1.66 1.77 1.88 1.94 1.88 1.68 1.53 1.54 1.54 1.55 1.59 1.76 1.43 1.33 1.53 1.43 1.36 1.31 1.24 1.16 1.13 1.12 1.17 1.24 1.32 1.40
1.27 1.20 1.10 1.03 0.96 0.88 0.88 0.91 0.88 0.86 0.96 1.00 1.02 1.11 1.22 1.32 1.40 1.48 1.61 1.70 1.74 1.74 1.70 1.53 1.47 1.47 1.46 1.44 1.59 1.27 1.25 1.44 1.32 1.22 1.15 1.11 1.08 1.07 1.03 1.05 1.11 1.14 1.14
1.00 0.96 0.93 0.89 0.85 0.83 0.80 0.78 0.77 0.75 0.82 0.94 1.02 1.07 1.12 1.15 1.21 1.25 1.30 1.38 1.50 1.60 1.70 1.67 1.52 1.47 1.46 1.43 1.37 1.18 1.10 1.07 1.10 1.17 1.11 1.05 0.98 0.95 0.94 0.91 0.87 0.88 0.88
0.88 0.88 0.86 0.85 0.84 0.85 0.85 0.81 0.75 0.72 0.76 0.85 0.91 0.95 0.96 0.96 0.99 1.06 1.14 1.17 1.25 1.36 1.49 1.58 1.50 1.38 1.35 1.34 1.28 1.20 1.04 0.94 0.93 0.98 0.93 0.86 0.84 0.81 0.77 0.76 0.76 0.74 0.72
0.86 0.82 0.77 0.79 0.84 0.84 0.81 0.78 0.74 0.72 0.70 0.74 0.77 0.78 0.80 0.85 0.85 0.86 0.90 0.96 1.02 1.08 1.21 1.26 1.27 1.22 1.18 1.13 1.16 1.12 1.02 1.02 0.88 0.87 0.80 0.73 0.69 0.66 0.62 0.58 0.61 0.65 0.66
0.80 0.80 0.78 0.75 0.74 0.69 0.61 0.56 0.56 0.57 0.56 0.57 0.59 0.61 0.68 0.75 0.74 0.75 0.74 0.76 0.82 0.91 1.01 1.08 1.08 1.08 1.06 1.00 1.02 1.06 1.03 0.96 0.87 0.72 0.73 0.63 0.57 0.51 0.51 0.51 0.49 0.48 0.50
0.68 0.65 0.63 0.60 0.51 0.43 0.39 0.38 0.41 0.43 0.45 0.46 0.48 0.47 0.49 0.57 0.63 0.61 0.58 0.64 0.75 0.85 0.90 0.95 0.92 0.88 0.88 0.92 0.93 0.89 0.86 0.83 0.79 0.69 0.73 0.65 0.61 0.58 0.60 0.57 0.52 0.47 0.46
0.67 0.57 0.52 0.51 0.44 0.35 0.36 0.33 0.35 0.41 0.45 0.46 0.47 0.48 0.45 0.46 0.46 0.45 0.49 0.61 0.75 0.78 0.82 0.88 0.87 0.87 0.86 0.85 0.85 0.85 0.87 0.89 0.90 0.75 0.73 0.67 0.61 0.65 0.63 0.59 0.54 0.48 0.44
0.74 0.70 0.60 0.54 0.53 0.47 0.40 0.35 0.37 0.44 0.49 0.47 0.46 0.46 0.40 0.38 0.42 0.43 0.47 0.54 0.61 0.63 0.70 0.82 0.91 0.89 0.90 0.92 0.94 0.89 0.94 0.98 0.94 0.83 0.88 0.84 0.65 0.60 0.49 0.45 0.46 0.41 0.41
0.72 0.71 0.66 0.61 0.53 0.42 0.32 0.28 0.28 0.37 0.46 0.46 0.45 0.46 0.48 0.47 0.44 0.46 0.46 0.50 0.59 0.65 0.66 0.69 0.83 0.82 0.79 0.84 0.88 0.92 0.96 0.97 0.94 0.88 0.94 0.96 0.70 0.61 0.49 0.53 0.50 0.37 0.33
0.60 0.57 0.54 0.51 0.49 0.39 0.24 0.19 0.21 0.36 0.46 0.43 0.37 0.36 0.39 0.44 0.45 0.43 0.47 0.58 0.65 0.70 0.59 0.60 0.68 0.75 0.78 0.82 0.80 0.84 1.00 1.13 1.07 0.86 0.85 0.95 0.79 0.68 0.58 0.57 0.52 0.44 0.36
0.55 0.48 0.43 0.43 0.43 0.39 0.26 0.21 0.23 0.35 0.44 0.41 0.38 0.36 0.36 0.37 0.37 0.38 0.47 0.61 0.71 0.71 0.63 0.66 0.80 0.90 0.88 0.95 0.90 0.90 1.11 1.18 1.11 1.04 0.87 0.91 0.87 0.85 0.80 0.62 0.57 0.53 0.50